sat.trackr.live / text

‹ back to catalog

STARLINK-36608

NORAD 67854 · 2026-034E

PAYLOAD ACTIVE UNKNOWN

§ Identity

Operator
Country
US
Launch date
2026-02-20
Launch site
AFETR
Launch vehicle
Mass (kg)
RCS (m²)

Purposes: comms

External: N2YO · Heavens-Above · Gunter

§ Orbital elements

Epoch: 2026-05-25T03:29:03.363648Z

Period
94.11 min
Inclination
53.1572°
Eccentricity
0.0001178
Mean motion
15.30204374 rev/d
Perigee alt
474.4 km
Apogee alt
476.0 km
Semi-major
6,853.3 km
B*
4.3669e-4
RAAN
208.9520°
Arg perigee
87.4051°
Mean anomaly
272.7084°
Rev number
1,573

§ Raw data

STARLINK-366081 67854U 26034E   26145.14517782  .00012598  00000+0  43669-3 0  99932 67854  53.1572 208.9520 0001178  87.4051 272.7084 15.30204374 15738

JSON: /api/v1/satellites/67854 · /tle

For live sub-satellite position, see the globe view (requires WebGL).

§ Visibility from observer

Set your observer location to see the next 7 days of passes ≥ 10°. The values pass through the URL so the page stays shareable.

No JS? Fill the form by hand. The geolocation button needs JavaScript.